[[{"header":{"parameterUnit":"m.s-1","parameterCategory":1,"la1":30.2991,"la2":30.254,"lo1":-89.0895,"lo2":-89.0444,"dy":0.0017,"dx":0.0017,"nx":28,"ny":28,"refTime":"2025-04-10T21:00:00:Z","depth":0,"parameterNumber":2,"parameterNumberName":"U-component_of_WINDS"},"data":[0,0,0,0,0,0,0,0,0,0,0,0,0,0,0,0,0,0,0,0,0,0,0,0,0,0,0,0,0,0,0,0,0,0,0,0,0,0,0,0,0,0,0,0,0,0,0,0,0,0,0,0,0,0,0,0,0,0,2.9348,2.935,0,2.9516,2.9518,2.952,2.9557,2.9556,2.9555,2.9554,2.9726,2.9731,2.9737,0,0,0,0,0,0,0,0,0,0,0,0,0,2.906,2.9065,2.9348,2.935,2.9352,2.9516,2.9518,2.9521,2.9557,2.9556,2.9554,2.9553,2.9724,2.973,2.9737,0,0,0,0,0,0,0,0,0,0,0,0,0,2.9202,2.9066,2.9348,2.939,2.9396,2.9516,2.9519,2.9521,2.9558,2.9556,2.9554,2.9552,2.9721,2.973,2.9738,2.9827,0,0,2.9764,2.9768,0,0,0,0,0,0,0,0,2.9194,2.9213,2.9382,2.9388,2.9394,2.9514,2.948,2.9624,2.9558,2.9496,2.9554,2.9552,2.9657,2.967,2.9706,2.9835,2.9843,2.9765,2.977,2.9774,2.9776,0,0,0,0,0,0,0,2.9184,2.9206,2.9415,2.9384,2.9392,2.9401,2.942,2.9507,2.9585,2.9502,2.9505,2.9524,2.966,2.9698,2.971,2.9845,2.9765,2.9773,2.9778,2.9781,3.0058,3.006,0,0,0,0,0,0,2.9167,2.9197,2.9409,2.942,2.9288,2.9408,2.9429,2.9477,2.9584,2.9598,2.9525,2.9525,2.9684,2.97,2.9716,2.9829,2.9774,2.9782,2.9787,3.0056,3.0059,3.0061,0,0,0,0,0,0,2.916,2.9185,2.9403,2.9309,2.9338,2.9415,2.947,2.9482,2.952,2.9602,2.9616,2.955,2.9683,2.9704,2.98,2.9835,2.9786,2.9794,3.0053,3.0057,3.006,3.0054,0,0,0,0,0,0,2.9152,2.9183,2.9217,2.931,2.9343,2.9483,2.9472,2.9486,2.9534,2.9536,2.9629,2.9642,2.9683,2.9787,2.9808,2.9846,2.98,3.0051,3.0055,3.0059,3.0051,3.0057,3.0061,0,0,0,0,0,2.9141,2.9208,2.9219,2.9244,2.9387,2.9485,2.9504,2.955,2.9537,2.9573,2.9626,2.9639,2.9828,2.9796,2.9821,2.9862,3.0049,3.0054,3.0059,3.0049,3.0055,3.0061,0,0,0,0,0,0,2.9117,2.9221,2.9234,2.9333,2.94,2.9491,2.9537,2.9555,2.9627,2.9625,2.9679,2.97,2.9792,2.9837,2.98,2.9955,2.9938,2.9948,2.9922,2.9929,2.9934,2.9921,2.9807,0,0,0,0,0,2.9123,2.9194,2.9281,2.936,2.9393,2.9459,2.9503,2.9533,2.9605,2.9633,2.9693,2.9762,2.9837,2.9886,2.9959,3.0058,3.0079,3.0098,3.0103,3.0107,3.0115,3.0172,3.0182,3.0078,3.0078,3.0077,0,0,2.9136,2.9202,2.9243,2.9357,2.9412,2.9484,2.9483,2.9559,2.9613,2.9645,2.9739,2.9786,2.9866,2.9964,3.001,3.0004,3.0149,3.0113,3.0115,3.0122,3.0178,3.0188,3.0196,3.0081,3.008,3.008,0,0,2.9198,2.9254,2.9327,2.9383,2.9467,2.9511,2.9528,2.9618,2.965,2.9745,2.9771,2.9837,2.9964,3.0021,3.0067,3.0152,3.0167,3.0174,3.02,3.0255,3.0263,3.0271,3.0302,3.0312,3.0182,3.0182,3.0182,0,2.9204,2.9314,2.9362,2.9438,2.9487,2.952,2.9594,2.9646,2.975,2.9783,2.9775,2.9937,2.9994,3.0106,3.0127,3.0162,3.0184,3.0164,3.0258,3.0266,3.0274,3.0304,3.0315,3.0182,3.0182,3.0182,3.0182,0,2.9317,2.9393,2.9442,2.9542,2.9597,2.9672,2.9731,2.9781,2.9807,2.9852,2.9949,3.0018,3.0107,3.0136,3.0161,3.0252,3.0246,3.0247,3.0231,3.0283,3.0313,3.0324,3.0183,3.0183,3.0182,3.0182,0,0,2.9368,2.9494,2.9511,2.9558,2.9654,2.9714,2.979,2.9878,2.992,2.9991,3.0057,3.0165,3.0167,3.0219,3.0251,3.0299,3.0363,3.0294,3.0297,3.0305,3.0469,3.0468,3.048,3.0374,3.0376,3.0378,3.0462,0,2.9441,2.9579,2.9625,2.974,2.9811,2.9844,2.991,2.9977,3.0021,3.0088,3.0137,3.0214,3.021,3.0242,3.0291,3.0344,3.0396,3.0339,3.0436,3.0439,3.0415,3.0495,3.0494,3.057,3.0474,3.0476,3.0477,0,2.9546,2.9619,2.974,2.9829,2.9861,2.992,3.0004,3.0068,3.0144,3.0173,3.0232,3.0261,3.0342,3.0322,3.0436,3.0396,3.0438,3.0471,3.0475,3.0486,3.0461,3.0509,3.0596,3.0607,3.0496,3.0494,3.0493,0,2.9571,2.97,2.979,2.9829,2.9934,2.9975,3.0021,3.0095,3.0145,3.0219,3.0252,3.0334,3.0379,3.0442,3.0493,3.0473,3.0603,3.0586,3.0629,3.0628,3.0655,3.0653,3.075,3.0682,3.0682,3.0681,3.0681,0,2.9649,2.9722,2.9803,2.9858,2.9942,2.9994,3.0076,3.0123,3.019,3.0255,3.0288,3.0349,3.0412,3.0481,3.0521,3.061,3.0629,3.0656,3.0665,3.0653,3.065,3.0682,3.0678,3.0684,3.0684,3.0683,3.0683,0,2.9691,2.9748,2.9849,2.994,2.9965,3.0023,3.0102,3.0157,3.0203,3.0285,3.0308,3.038,3.0463,3.052,3.0626,3.0653,3.075,3.0759,3.0724,3.0729,3.077,3.0765,3.0892,3.0911,3.0829,3.0829,3.083,0,2.9737,2.9795,2.9893,2.994,2.9986,3.006,3.0111,3.0166,3.0218,3.031,3.0354,3.044,3.0511,3.0643,3.0705,3.0787,3.0798,3.0837,3.0811,3.0797,3.08,3.0796,3.0802,3.0841,3.0841,3.0842,3.0842,0,2.9814,2.9839,2.9912,2.9996,3.0056,3.0124,3.0192,3.0229,3.0295,3.0352,3.0438,3.0493,3.0603,3.0688,3.0776,3.0823,3.0844,3.085,3.0865,3.0853,3.0831,3.0844,3.0736,3.0847,3.0847,3.0846,3.0846,3.0846,2.986,2.9913,2.9991,3.0071,3.0129,3.0192,3.0249,3.0302,3.0375,3.0468,3.0496,3.0586,3.0662,3.0783,3.0832,3.0903,3.0899,3.092,3.0925,3.093,3.093,3.0819,3.0919,3.0919,3.0919,3.0919,3.0919,0,2.9939,2.9991,3.0064,3.0159,3.0223,3.0237,3.0314,3.0366,3.0445,3.0514,3.0584,3.0683,3.0766,3.0835,3.0921,3.0964,3.0976,3.0985,3.0983,3.0993,3.0928,3.0907,3.0974,3.0974,3.0974,3.0974,3.0974,3.0974,2.9987,3.0078,3.0113,3.0233,3.0284,3.0373,3.0415,3.0474,3.053,3.0639,3.0709,3.0753,3.0823,3.0914,3.0991,3.1009,3.1039,3.1046,3.1067,3.1004,3.0998,3.0992,3.0973,3.1052,3.1052,3.1126,3.1127,3.1128]},{"header":{"parameterUnit":"m.s-1","parameterCategory":1,"la1":30.2991,"la2":30.254,"lo1":-89.0895,"lo2":-89.0444,"dy":0.0017,"dx":0.0017,"nx":28,"ny":28,"refTime":"2025-04-10T21:00:00:Z","depth":0,"parameterNumber":3,"parameterNumberName":"V-component_of_WINDS"},"data":[0,0,0,0,0,0,0,0,0,0,0,0,0,0,0,0,0,0,0,0,0,0,0,0,0,0,0,0,0,0,0,0,0,0,0,0,0,0,0,0,0,0,0,0,0,0,0,0,0,0,0,0,0,0,0,0,0,0,-3.9475,-3.9474,0,-3.9438,-3.9438,-3.9437,-3.9418,-3.9418,-3.9418,-3.9418,-3.9376,-3.9375,-3.9374,0,0,0,0,0,0,0,0,0,0,0,0,0,-3.9526,-3.9526,-3.9475,-3.9474,-3.9474,-3.9438,-3.9438,-3.9437,-3.9418,-3.9418,-3.9418,-3.9418,-3.9376,-3.9375,-3.9374,0,0,0,0,0,0,0,0,0,0,0,0,0,-3.9498,-3.9525,-3.9475,-3.946,-3.9458,-3.9438,-3.9438,-3.9437,-3.9418,-3.9418,-3.9418,-3.9418,-3.9377,-3.9375,-3.9373,-3.9364,0,0,-3.9368,-3.9368,0,0,0,0,0,0,0,0,-3.95,-3.9496,-3.9463,-3.9461,-3.9459,-3.9433,-3.944,-3.9412,-3.9418,-3.9433,-3.9418,-3.9418,-3.9394,-3.9391,-3.9384,-3.9362,-3.936,-3.9368,-3.9367,-3.9366,-3.9366,0,0,0,0,0,0,0,-3.9502,-3.9498,-3.946,-3.9462,-3.946,-3.9455,-3.9451,-3.9435,-3.9414,-3.9432,-3.943,-3.9426,-3.9393,-3.9386,-3.9383,-3.9359,-3.9368,-3.9367,-3.9366,-3.9365,-3.9331,-3.9331,0,0,0,0,0,0,-3.9507,-3.9499,-3.9461,-3.9459,-3.948,-3.9454,-3.9449,-3.9441,-3.9414,-3.941,-3.9427,-3.9426,-3.9389,-3.9385,-3.9382,-3.9371,-3.9366,-3.9365,-3.9364,-3.9331,-3.9331,-3.9331,0,0,0,0,0,0,-3.9508,-3.9503,-3.9463,-3.9479,-3.9473,-3.9453,-3.9444,-3.944,-3.9433,-3.9411,-3.9406,-3.9423,-3.9389,-3.9384,-3.937,-3.9369,-3.9364,-3.9363,-3.9331,-3.9331,-3.9331,-3.9348,0,0,0,0,0,0,-3.9509,-3.9504,-3.95,-3.9479,-3.9473,-3.9452,-3.9444,-3.944,-3.9431,-3.9429,-3.9406,-3.9402,-3.9388,-3.9372,-3.9368,-3.9367,-3.9361,-3.933,-3.9331,-3.9331,-3.9347,-3.9348,-3.935,0,0,0,0,0,-3.9511,-3.9504,-3.95,-3.9495,-3.9468,-3.9451,-3.9448,-3.9433,-3.9431,-3.9427,-3.9413,-3.9403,-3.937,-3.9371,-3.9366,-3.9364,-3.933,-3.9331,-3.9331,-3.9347,-3.9348,-3.935,0,0,0,0,0,0,-3.9523,-3.9501,-3.9496,-3.9482,-3.9469,-3.9448,-3.9443,-3.9435,-3.9421,-3.942,-3.9401,-3.9396,-3.9384,-3.9372,-3.9374,-3.9355,-3.9349,-3.9348,-3.9363,-3.9364,-3.9366,-3.9368,-3.936,0,0,0,0,0,-3.9525,-3.9515,-3.9495,-3.9485,-3.948,-3.9463,-3.9455,-3.9446,-3.943,-3.9424,-3.9409,-3.9394,-3.9381,-3.9372,-3.9358,-3.9346,-3.9341,-3.9343,-3.9344,-3.9345,-3.9344,-3.934,-3.9341,-3.9331,-3.9331,-3.9331,0,0,-3.9527,-3.9514,-3.9508,-3.9488,-3.9476,-3.9466,-3.9458,-3.9446,-3.9438,-3.9422,-3.9408,-3.9397,-3.9379,-3.9367,-3.936,-3.9357,-3.9346,-3.9345,-3.9346,-3.9345,-3.934,-3.9341,-3.9342,-3.9331,-3.9331,-3.9331,0,0,-3.9526,-3.9514,-3.9506,-3.9496,-3.948,-3.947,-3.9468,-3.9449,-3.9442,-3.9429,-3.9417,-3.9407,-3.9384,-3.9373,-3.9364,-3.9363,-3.9354,-3.9359,-3.9365,-3.9361,-3.9362,-3.9362,-3.9364,-3.9364,-3.9359,-3.9359,-3.9359,0,-3.953,-3.9515,-3.9502,-3.9493,-3.9485,-3.9473,-3.9465,-3.9455,-3.9435,-3.943,-3.9427,-3.94,-3.9387,-3.9373,-3.9373,-3.9366,-3.9364,-3.9361,-3.9363,-3.9363,-3.9364,-3.9365,-3.9365,-3.936,-3.936,-3.936,-3.9359,0,-3.9521,-3.9512,-3.9507,-3.9491,-3.9482,-3.9473,-3.946,-3.9453,-3.9446,-3.9436,-3.9424,-3.9408,-3.9393,-3.9389,-3.9379,-3.9374,-3.9373,-3.9367,-3.936,-3.9366,-3.9367,-3.9367,-3.9361,-3.9361,-3.936,-3.936,0,0,-3.9524,-3.9505,-3.9503,-3.9497,-3.9481,-3.9472,-3.9464,-3.9451,-3.9446,-3.9434,-3.9427,-3.941,-3.9405,-3.9395,-3.9385,-3.9382,-3.9385,-3.9376,-3.9375,-3.9379,-3.9381,-3.9386,-3.9386,-3.938,-3.938,-3.9379,-3.9383,0,-3.9521,-3.9506,-3.9497,-3.9486,-3.9478,-3.9468,-3.9461,-3.9451,-3.9442,-3.9434,-3.9423,-3.9413,-3.9406,-3.9401,-3.9397,-3.9386,-3.9385,-3.9385,-3.9373,-3.9373,-3.9378,-3.9386,-3.9391,-3.9394,-3.9383,-3.9383,-3.9383,0,-3.9514,-3.9506,-3.9495,-3.9483,-3.9479,-3.9473,-3.9462,-3.9454,-3.9443,-3.9437,-3.9429,-3.942,-3.9411,-3.9407,-3.9396,-3.9396,-3.9391,-3.9385,-3.9385,-3.9383,-3.9378,-3.9385,-3.9395,-3.9396,-3.9383,-3.9383,-3.9383,0,-3.9519,-3.9504,-3.9497,-3.9492,-3.9477,-3.9474,-3.9467,-3.9456,-3.945,-3.9441,-3.9437,-3.9426,-3.9419,-3.9411,-3.94,-3.9398,-3.9391,-3.9384,-3.9386,-3.9386,-3.9384,-3.9384,-3.9393,-3.938,-3.938,-3.938,-3.938,0,-3.9517,-3.9511,-3.9499,-3.9494,-3.9488,-3.9478,-3.9472,-3.9465,-3.9456,-3.945,-3.944,-3.9435,-3.942,-3.9413,-3.9404,-3.9397,-3.9394,-3.939,-3.9387,-3.939,-3.9391,-3.9386,-3.9386,-3.938,-3.938,-3.938,-3.938,0,-3.952,-3.9512,-3.9503,-3.9492,-3.9489,-3.9485,-3.9475,-3.9471,-3.9463,-3.9456,-3.9454,-3.9442,-3.9433,-3.9422,-3.9409,-3.9403,-3.9398,-3.9394,-3.9402,-3.9401,-3.9403,-3.9404,-3.941,-3.9411,-3.9397,-3.9397,-3.9397,0,-3.9518,-3.9514,-3.9504,-3.9501,-3.9495,-3.9489,-3.9484,-3.9475,-3.947,-3.946,-3.9457,-3.9448,-3.9441,-3.9428,-3.9418,-3.9409,-3.9405,-3.9408,-3.9403,-3.9408,-3.9406,-3.9407,-3.9407,-3.9409,-3.9409,-3.9409,-3.9409,0,-3.9518,-3.9515,-3.9509,-3.9503,-3.9498,-3.9492,-3.9485,-3.9483,-3.9473,-3.9468,-3.9461,-3.9455,-3.9445,-3.9437,-3.9427,-3.942,-3.9413,-3.9411,-3.9411,-3.9414,-3.942,-3.9418,-3.9406,-3.9411,-3.941,-3.941,-3.941,-3.941,-3.9519,-3.9516,-3.951,-3.9504,-3.95,-3.9495,-3.9491,-3.9485,-3.9479,-3.9471,-3.9466,-3.946,-3.9452,-3.9439,-3.9433,-3.9428,-3.9424,-3.9424,-3.9424,-3.9424,-3.9426,-3.9422,-3.9426,-3.9426,-3.9426,-3.9426,-3.9425,0,-3.9519,-3.9516,-3.9511,-3.9504,-3.95,-3.9497,-3.9491,-3.9488,-3.9483,-3.9476,-3.9471,-3.9464,-3.9458,-3.9449,-3.9442,-3.944,-3.9436,-3.9438,-3.9438,-3.9437,-3.9428,-3.943,-3.9441,-3.9441,-3.9441,-3.9441,-3.9441,-3.9441,-3.9518,-3.9514,-3.9512,-3.9506,-3.9502,-3.9497,-3.9495,-3.9491,-3.9486,-3.948,-3.9475,-3.9471,-3.9464,-3.9457,-3.9451,-3.9449,-3.9447,-3.945,-3.9447,-3.9439,-3.9437,-3.9436,-3.9437,-3.945,-3.945,-3.9456,-3.9456,-3.9456]}]]